User: anonymous   Login
Location: Bandys
(35.4750°N, 81.0830°W)
Time: 23:39:19
(UTC-05:00)
Language:

DELTA 2 R/B (1) - Orbit

View from above orbital plane
View from above orbital plane
View from above satellite
View from above satellite

Ground track
Ground track

The orbit data is extracted from the following two-line orbital elements,

1 27665U 03005C   14352.21596354  .00000227  00000-0  12387-3 0  1878
2 27665 039.5767 073.3963 0008041 103.5670 278.4072 14.28268595620504
Epoch (UTC): 18 December 2014 05:10:59
Eccentricity: 0.0008041
inclination: 39.5767°
perigee height: 792 km
apogee height: 803 km
right ascension of ascending node: 73.3963°
argument of perigee: 103.5670°
revolutions per day: 14.28268595
mean anomaly at epoch: 278.4072°
orbit number at epoch: 62050

The dashed part of the orbit path shows where the satellite is in the earth's shadow,  

DLR